Starlink 30792

operational
NORAD ID: 58220 Int'l Des: 2023-170 Owner: SPXS Country: US Constellation: starlink
LEOCIRCULAR

About Starlink 30792

Description loading...

Live Position

Loading 3D Globe...

Upcoming Passes

Altitude History

Altitude vs Time

uPlot chart will show altitude changes over time

Two-Line Element Set

1 58220U 23170Q 25258.19183700 .00000474 00000-0 50122-4 0 9990
2 58220 43.0039 69.2143 0001066 265.9334 94.1387 15.02538177103889
Epoch: Sep 15, 2025 • Age: 8 hours

Current Status

Altitude 560.8 km
Velocity 7.58 km/s
Sub-Earth Point -11.08°S, 126.99°W
Launch Date Nov 4, 2023
Age 1.8 years
Type internet

Technical Details

Classification Payload
Mass 730.00 kg
Dry Mass 700.00 kg
Total Mass 730.00 kg
Length 0.30 m
Diameter 4.10 m
Span 29.00 m
Shape Box + pan
Manufacturer SPXS
Bus Type Starlink V2M
Phase Status In Orbit
Owner/State SPXS/US

Large Constellations

Loading constellations...